Location: Newark
(40.3500°N, 15.2333°E)
Time: 01:53:51
(UTC+00:00)

NOAA 15 - Pass Details

Date: 26 February 2020
Orbit: 797 x 813 km, 98.7° (Epoch: 08 April)

Event Time Altitude Azimuth Distance (km) Brightness Sun altitude
Rises 17:30:32 0° 164° (SSE) 3,319 7.7 -9.1°
Reaches altitude 10° 17:32:51 10° 165° (SSE) 2,393 6.9 -9.6°
Maximum altitude 17:38:09 90° 101° (E) 819 4.6 -10.6°
Drops below altitude 10° 17:43:31 10° 347° (NNW) 2,410 7.2 -11.6°
Sets 17:45:52 0° 347° (NNW) 3,345 8.0 -12.1°
